• In Hungary
  • List of Countries
  • For 7 days
  • Water Temperature
  • Satellite Maps
  • Weather Map
  • News
  • Weather Widgets
  • user-avatar
    Login

    Hourly Weather Stepanakert

    Today, 22 August, Wednesday

    Time Temperature Precipitation Wind Pressure Humidity
    00:00 +20°C° 0 mm 1 mps 693 mmHg 72%
    01:00 +20°C° 0 mm 1 mps 693 mmHg 73%
    02:00 +19°C° 0 mm 1 mps 692 mmHg 74%
    03:00 +19°C° 0 mm 1 mps 692 mmHg 75%
    04:00 +19°C° 0 mm 1 mps 692 mmHg 74%
    05:00 +19°C° 0 mm 1 mps 692 mmHg 73%
    06:00 +20°C° 0 mm 1 mps 692 mmHg 71%
    07:00 +22°C° 0 mm 1 mps 693 mmHg 65%
    08:00 +23°C° 0 mm 2 mps 693 mmHg 58%
    09:00 +25°C° 0 mm 2 mps 693 mmHg 51%
    10:00 +27°C° 0 mm 2 mps 693 mmHg 47%
    11:00 +28°C° 0 mm 3 mps 693 mmHg 44%
    12:00 +29°C° 0 mm 3 mps 692 mmHg 41%
    13:00 +29°C° 0 mm 3 mps 692 mmHg 40%
    14:00 +30°C° 0 mm 3 mps 692 mmHg 40%
    15:00 +30°C° 0 mm 3 mps 691 mmHg 40%
    16:00 +29°C° 0 mm 3 mps 691 mmHg 43%
    17:00 +29°C° 0 mm 2 mps 691 mmHg 46%
    18:00 +28°C° 0 mm 2 mps 691 mmHg 49%
    19:00 +26°C° 0 mm 2 mps 692 mmHg 54%
    20:00 +25°C° 0 mm 1 mps 692 mmHg 59%
    21:00 +23°C° 0 mm 1 mps 692 mmHg 64%
    22:00 +23°C° 0 mm 1 mps 692 mmHg 66%
    23:00 +22°C° 0 mm 1 mps 692 mmHg 67%

    Tomorrow, 23 August, Thursday

    Time Temperature Precipitation Wind Pressure Humidity
    00:00 +22°C° 0 mm 1 mps 693 mmHg 69%
    01:00 +21°C° 0 mm 1 mps 693 mmHg 70%
    02:00 +21°C° 0 mm 1 mps 692 mmHg 71%
    03:00 +21°C° 0 mm 1 mps 692 mmHg 72%
    04:00 +21°C° 0 mm 1 mps 693 mmHg 71%
    05:00 +21°C° 0 mm 1 mps 693 mmHg 71%
    06:00 +21°C° 0 mm 1 mps 693 mmHg 70%
    07:00 +23°C° 0 mm 2 mps 693 mmHg 61%
    08:00 +25°C° 0 mm 2 mps 694 mmHg 53%
    09:00 +27°C° 0 mm 2 mps 694 mmHg 44%
    10:00 +28°C° 0 mm 3 mps 694 mmHg 41%
    11:00 +29°C° 0 mm 3 mps 694 mmHg 37%
    12:00 +30°C° 0 mm 3 mps 694 mmHg 34%
    13:00 +30°C° 0 mm 4 mps 694 mmHg 33%
    14:00 +32°C° 0 mm 4 mps 693 mmHg 33%
    15:00 +32°C° 0 mm 4 mps 693 mmHg 32%
    16:00 +30°C° 0 mm 4 mps 693 mmHg 35%
    17:00 +29°C° 0 mm 4 mps 693 mmHg 38%
    18:00 +28°C° 0 mm 4 mps 693 mmHg 41%
    19:00 +27°C° 0 mm 4 mps 693 mmHg 46%
    20:00 +25°C° 0 mm 3 mps 694 mmHg 52%
    21:00 +23°C° 0 mm 2 mps 694 mmHg 57%
    22:00 +23°C° 0 mm 2 mps 694 mmHg 59%
    23:00 +21°C° 0 mm 2 mps 694 mmHg 61%

    Day after tomorrow, 24 August, Friday

    Time Temperature Precipitation Wind Pressure Humidity
    00:00 +21°C° 0 mm 2 mps 694 mmHg 64%
    01:00 +20°C° 0 mm 2 mps 694 mmHg 64%
    02:00 +20°C° 0 mm 2 mps 694 mmHg 65%
    03:00 +20°C° 0 mm 2 mps 694 mmHg 66%
    04:00 +20°C° 0 mm 2 mps 694 mmHg 64%
    05:00 +20°C° 0 mm 2 mps 694 mmHg 62%
    06:00 +20°C° 0 mm 2 mps 694 mmHg 61%
    07:00 +23°C° 0 mm 2 mps 694 mmHg 54%
    08:00 +25°C° 0 mm 3 mps 695 mmHg 48%
    09:00 +27°C° 0 mm 3 mps 695 mmHg 42%
    10:00 +28°C° 0 mm 4 mps 695 mmHg 39%
    11:00 +29°C° 0 mm 4 mps 694 mmHg 37%
    12:00 +30°C° 0 mm 4 mps 694 mmHg 34%
    13:00 +30°C° 0 mm 4 mps 694 mmHg 34%
    14:00 +32°C° 0 mm 4 mps 693 mmHg 34%
    15:00 +32°C° 0 mm 4 mps 693 mmHg 34%
    16:00 +30°C° 0 mm 4 mps 693 mmHg 37%
    17:00 +29°C° 0 mm 4 mps 693 mmHg 41%
    18:00 +27°C° 0 mm 4 mps 692 mmHg 45%
    19:00 +26°C° 0 mm 3 mps 692 mmHg 51%
    20:00 +24°C° 0 mm 3 mps 693 mmHg 57%
    21:00 +21°C° 0 mm 2 mps 693 mmHg 63%
    22:00 +21°C° 0 mm 2 mps 693 mmHg 65%
    23:00 +20°C° 0 mm 2 mps 693 mmHg 67%

    25 August, Saturday

    Time Temperature Precipitation Wind Pressure Humidity
    00:00 +21°C° 0 mm 1 mps 692 mmHg 68%
    01:00 +21°C° 0 mm 1 mps 692 mmHg 70%
    02:00 +20°C° 0 mm 1 mps 692 mmHg 71%
    03:00 +20°C° 0 mm 1 mps 692 mmHg 73%
    04:00 +20°C° 0 mm 1 mps 692 mmHg 72%
    05:00 +20°C° 0 mm 1 mps 692 mmHg 71%
    06:00 +20°C° 0 mm 1 mps 692 mmHg 71%
    07:00 +22°C° 0 mm 1 mps 692 mmHg 62%
    08:00 +24°C° 0 mm 2 mps 693 mmHg 53%
    09:00 +26°C° 0 mm 2 mps 693 mmHg 45%
    10:00 +27°C° 0 mm 3 mps 693 mmHg 41%
    11:00 +29°C° 0 mm 3 mps 693 mmHg 37%
    12:00 +30°C° 0 mm 3 mps 692 mmHg 33%
    13:00 +31°C° 0 mm 3 mps 692 mmHg 32%
    14:00 +32°C° 0 mm 4 mps 692 mmHg 31%
    15:00 +32°C° 0 mm 4 mps 692 mmHg 30%
    16:00 +30°C° 0 mm 4 mps 692 mmHg 32%
    17:00 +29°C° 0 mm 4 mps 692 mmHg 34%
    18:00 +28°C° 0 mm 4 mps 692 mmHg 35%
    19:00 +26°C° 0 mm 3 mps 692 mmHg 40%
    20:00 +24°C° 0 mm 3 mps 692 mmHg 44%
    21:00 +21°C° 0 mm 2 mps 692 mmHg 48%
    22:00 +21°C° 0 mm 2 mps 692 mmHg 49%
    23:00 +21°C° 0 mm 2 mps 692 mmHg 50%

    26 August, Sunday

    Time Temperature Precipitation Wind Pressure Humidity
    00:00 +20°C° 0 mm 2 mps 692 mmHg 51%
    01:00 +20°C° 0 mm 2 mps 692 mmHg 52%
    02:00 +20°C° 0 mm 1 mps 692 mmHg 52%
    03:00 +20°C° 0 mm 1 mps 692 mmHg 53%
    04:00 +20°C° 0 mm 1 mps 692 mmHg 53%
    05:00 +20°C° 0 mm 1 mps 692 mmHg 52%
    06:00 +20°C° 0 mm 1 mps 692 mmHg 52%
    07:00 +23°C° 0 mm 1 mps 692 mmHg 45%
    08:00 +25°C° 0 mm 2 mps 692 mmHg 37%
    09:00 +27°C° 0 mm 2 mps 692 mmHg 30%
    10:00 +28°C° 0 mm 2 mps 692 mmHg 28%
    11:00 +30°C° 0 mm 3 mps 691 mmHg 25%
    12:00 +31°C° 0 mm 3 mps 691 mmHg 23%
    13:00 +31°C° 0 mm 3 mps 691 mmHg 23%
    14:00 +33°C° 0 mm 3 mps 690 mmHg 22%
    15:00 +33°C° 0 mm 3 mps 690 mmHg 22%
    16:00 +31°C° 0 mm 3 mps 689 mmHg 24%
    17:00 +30°C° 0 mm 3 mps 689 mmHg 26%
    18:00 +29°C° 0 mm 2 mps 689 mmHg 29%
    19:00 +27°C° 0 mm 2 mps 689 mmHg 33%
    20:00 +25°C° 0 mm 2 mps 689 mmHg 36%
    21:00 +23°C° 0 mm 2 mps 689 mmHg 40%
    22:00 +23°C° 0 mm 2 mps 689 mmHg 42%
    23:00 +21°C° 0 mm 2 mps 689 mmHg 44%

    27 August, Monday

    Time Temperature Precipitation Wind Pressure Humidity
    00:00 +22°C° 0 mm 1 mps 689 mmHg 46%
    01:00 +21°C° 0 mm 1 mps 689 mmHg 47%
    02:00 +21°C° 0 mm 1 mps 689 mmHg 49%
    03:00 +21°C° 0 mm 1 mps 688 mmHg 50%
    04:00 +21°C° 0 mm 1 mps 689 mmHg 51%
    05:00 +21°C° 0 mm 1 mps 689 mmHg 52%
    06:00 +21°C° 0 mm 1 mps 689 mmHg 53%
    07:00 +23°C° 0 mm 1 mps 689 mmHg 47%
    08:00 +25°C° 0 mm 2 mps 689 mmHg 40%
    09:00 +27°C° 0 mm 2 mps 690 mmHg 34%
    10:00 +29°C° 0 mm 2 mps 689 mmHg 32%
    11:00 +30°C° 0 mm 3 mps 689 mmHg 29%
    12:00 +31°C° 0 mm 3 mps 689 mmHg 26%
    13:00 +33°C° 0 mm 3 mps 689 mmHg 26%
    14:00 +33°C° 0 mm 4 mps 689 mmHg 25%
    15:00 +33°C° 0 mm 4 mps 688 mmHg 25%
    16:00 +31°C° 0 mm 3 mps 688 mmHg 27%
    17:00 +30°C° 0 mm 3 mps 688 mmHg 30%
    18:00 +29°C° 0 mm 3 mps 689 mmHg 32%
    19:00 +27°C° 0 mm 3 mps 689 mmHg 37%
    20:00 +25°C° 0 mm 2 mps 689 mmHg 42%
    21:00 +23°C° 0 mm 2 mps 689 mmHg 47%
    22:00 +23°C° 0 mm 2 mps 690 mmHg 50%
    23:00 +21°C° 0 mm 2 mps 690 mmHg 52%
    Show more